Location: Besigheim
(48.9980°N, 9.1427°E)
Time: 11:09:41
(UTC+00:00)

SL-24 R/B - RUBIN 2 - Pass Details

Date: 20 February 2026
Orbit: 603 x 984 km, 64.6° (Epoch: 8 March)

Event Time Altitude Azimuth Distance (km) Brightness Sun altitude
Exits shadow 05:27:26 - 322° (NW) 2,589 6.3 -9.8°
Reaches altitude 10° 05:30:15 10° 349° (N) 1,974 6.0 -9.3°
Maximum altitude 05:31:44 11° 9° (N) 1,869 6.1 -9.1°
Drops below altitude 10° 05:33:13 10° 29° (NNE) 1,959 6.4 -8.9°
Sets 05:37:05 0° 64° (ENE) 2,865 8.0 -8.2°
